Terminal Aerodrome Forecast
Issued by NWS Louisville, KY

Home | Current Version | Previous Version | Text Only | Print | Product List | Glossary On
Versions: 1 2 3 4 5 6 7 8 9 10 11 12 13 14 15 16 17 18 19 20 21 22 23
000
FTUS43 KLMK 161700
TAFLEX
TAF
KLEX 161720Z 1618/1718 10010KT P6SM FEW250
     FM170000 VRB05KT P6SM SCT250
     FM171400 18009KT P6SM SCT250=

USA.gov is the U.S. government's official web portal to all federal, state and local government web resources and services.